START_TIME,STEP,MOV.,EG07,t_acc.,EG08,t_acc.,EG09,t_acc.,EB05,t_acc.,EBP05,t_acc.
1980-11-15 06:00:11.420 ,2,0,0.,1.2,0.,1.2,0.,1.2,,0.0,,0.0
1980-11-15 06:00:12.620 ,2,0,0.,1.2,0.,1.2,0.,1.2,,0.0,,0.0
1980-11-15 06:00:13.820 ,2,0,0.,1.2,0.,1.2,0.,1.2,,0.0,,0.0
1980-11-15 06:00:15.020 ,2,0,0.,1.2,0.,1.2,0.,1.2,,0.0,,0.0
1980-11-15 06:00:16.220 ,2,0,0.,1.2,0.,1.2,0.,1.2,,0.0,,0.0
1980-11-15 06:00:17.420 ,2,0,0.,1.2,0.,1.2,0.,1.2,,0.0,,0.0
1980-11-15 06:00:18.620 ,2,0,0.,1.2,0.,1.2,0.,1.2,,0.0,,0.0
1980-11-15 06:00:19.820 ,2,0,0.,1.2,0.,1.2,0.,1.2,,0.0,,0.0
1980-11-15 06:00:21.020 ,2,0,0.,1.2,0.,1.2,0.,1.2,,0.0,,0.0
1980-11-15 06:00:22.220 ,2,0,0.,1.2,0.,1.2,0.,1.2,,0.0,,0.0
1980-11-15 06:00:23.420 ,2,0,0.,1.2,0.,1.2,0.,1.2,,0.0,,0.0
1980-11-15 06:00:24.620 ,2,0,0.,1.2,0.,1.2,0.,1.2,,0.0,,0.0
1980-11-15 06:00:25.820 ,2,0,0.,1.2,0.,1.2,0.,1.2,,0.0,,0.0
1980-11-15 06:00:27.020 ,2,0,0.,1.2,0.,1.2,0.,1.2,,0.0,,0.0
1980-11-15 06:00:28.220 ,2,0,0.,1.2,0.,1.2,0.,1.2,,0.0,,0.0
1980-11-15 06:00:29.420 ,2,0,0.,1.2,0.,1.2,0.,1.2,,0.0,,0.0
1980-11-15 06:00:30.620 ,2,0,0.,1.2,0.,1.2,0.,1.2,,0.0,,0.0
1980-11-15 06:00:31.820 ,2,0,0.,1.2,0.,1.2,0.,1.2,,0.0,,0.0
1980-11-15 06:00:33.020 ,2,0,0.,1.2,0.,1.2,0.,1.2,,0.0,,0.0
1980-11-15 06:00:34.220 ,2,0,0.,1.2,0.,1.2,0.,1.2,,0.0,,0.0
1980-11-15 06:00:35.420 ,1,0,0.,1.2,0.,1.2,0.,1.2,,0.0,,0.0
1980-11-15 06:00:36.620 ,1,0,0.,1.2,0.,1.2,0.,1.2,,0.0,,0.0
1980-11-15 06:00:37.820 ,1,0,0.,1.2,0.,1.2,0.,1.2,,0.0,,0.0
1980-11-15 06:00:39.020 ,1,0,0.,1.2,0.,1.2,0.,1.2,,0.0,,0.0
1980-11-15 06:00:40.220 ,1,0,0.,1.2,0.,1.2,0.,1.2,,0.0,,0.0
1980-11-15 06:00:41.420 ,1,0,0.,1.2,0.,1.2,0.,1.2,,0.0,,0.0
1980-11-15 06:00:42.620 ,1,0,0.,1.2,0.,1.2,0.,1.2,,0.0,,0.0
1980-11-15 06:00:43.820 ,1,0,0.,1.2,0.,1.2,0.,1.2,,0.0,,0.0
1980-11-15 06:00:45.020 ,1,0,0.,1.2,0.,1.2,0.,1.2,,0.0,,0.0
1980-11-15 06:00:46.220 ,1,0,0.,1.2,0.,1.2,0.,1.2,,0.0,,0.0
1980-11-15 06:00:47.420 ,1,0,0.,1.2,0.,1.2,0.,1.2,,0.0,,0.0
1980-11-15 06:00:48.620 ,1,0,0.,1.2,0.,1.2,0.,1.2,,0.0,,0.0
1980-11-15 06:00:49.820 ,1,0,0.,1.2,0.,1.2,0.,1.2,,0.0,,0.0
1980-11-15 06:00:51.020 ,1,0,0.,1.2,0.,1.2,0.,1.2,,0.0,,0.0
1980-11-15 06:00:52.220 ,1,0,0.,1.2,0.,1.2,0.,1.2,,0.0,,0.0
1980-11-15 06:00:53.420 ,1,0,0.,1.2,0.,1.2,0.,1.2,,0.0,,0.0
1980-11-15 06:00:54.620 ,1,0,0.,1.2,0.,1.2,0.,1.2,,0.0,,0.0
1980-11-15 06:00:55.820 ,1,0,0.,1.2,0.,1.2,0.,1.2,,0.0,,0.0
1980-11-15 06:00:57.020 ,1,0,0.,1.2,0.,1.2,0.,1.2,,0.0,,0.0
1980-11-15 06:00:58.220 ,1,0,0.,1.2,0.,1.2,0.,1.2,,0.0,,0.0
1980-11-15 06:00:59.420 ,1,0,0.,1.2,0.,1.2,0.,1.2,,0.0,,0.0
1980-11-15 06:01:00.620 ,1,0,0.,1.2,0.,1.2,0.,1.2,,0.0,,0.0
1980-11-15 06:01:01.820 ,1,0,0.,1.2,0.,1.2,0.,1.2,,0.0,,0.0
1980-11-15 06:01:03.020 ,1,0,0.,1.2,0.,1.2,0.,1.2,,0.0,,0.0
1980-11-15 06:01:04.220 ,1,0,0.,1.2,0.,1.2,0.,1.2,,0.0,,0.0
1980-11-15 06:01:05.420 ,1,0,0.,1.2,0.,1.2,0.,1.2,,0.0,,0.0
1980-11-15 06:01:06.620 ,1,0,0.,1.2,0.,1.2,0.,1.2,,0.0,,0.0
1980-11-15 06:01:07.820 ,1,0,0.,1.2,0.,1.2,0.,1.2,,0.0,,0.0
1980-11-15 06:01:09.020 ,1,0,0.,1.2,0.,1.2,0.,1.2,,0.0,,0.0
1980-11-15 06:01:10.220 ,1,0,0.,1.2,0.,1.2,0.,1.2,,0.0,,0.0
1980-11-15 06:01:11.420 ,1,0,0.,1.2,0.,1.2,0.,1.2,,0.0,,0.0
1980-11-15 06:01:12.620 ,1,0,0.,1.2,0.,1.2,0.,1.2,,0.0,,0.0
1980-11-15 06:01:13.820 ,1,0,0.,1.2,0.,1.2,0.,1.2,,0.0,,0.0
1980-11-15 06:01:15.020 ,1,0,0.,1.2,0.,1.2,0.,1.2,,0.0,,0.0
1980-11-15 06:01:16.220 ,1,0,0.,1.2,0.,1.2,0.,1.2,,0.0,,0.0
1980-11-15 06:01:17.420 ,1,0,0.,1.2,0.,1.2,0.,1.2,,0.0,,0.0
1980-11-15 06:01:18.620 ,1,0,0.,1.2,0.,1.2,0.,1.2,,0.0,,0.0
1980-11-15 06:01:19.820 ,1,0,0.,1.2,0.,1.2,0.,1.2,,0.0,,0.0
1980-11-15 06:01:21.020 ,1,0,0.,1.2,0.,1.2,0.,1.2,,0.0,,0.0
1980-11-15 06:01:22.220 ,1,0,0.,1.2,0.,1.2,0.,1.2,,0.0,,0.0
1980-11-15 06:01:23.420 ,0,0,0.,1.2,0.,1.2,0.,1.2,,0.0,,0.0
1980-11-15 06:01:24.620 ,0,0,0.,1.2,0.,1.2,0.,1.2,,0.0,,0.0
1980-11-15 06:01:25.820 ,0,0,0.,1.2,0.,1.2,0.,1.2,,0.0,,0.0
1980-11-15 06:01:27.020 ,0,0,0.,1.2,0.,1.2,0.,1.2,,0.0,,0.0
1980-11-15 06:01:28.220 ,0,0,0.,1.2,0.,1.2,0.,1.2,,0.0,,0.0
1980-11-15 06:01:29.420 ,0,0,0.,1.2,0.,1.2,0.,1.2,,0.0,,0.0
1980-11-15 06:01:30.620 ,0,0,0.,1.2,0.,1.2,0.,1.2,,0.0,,0.0
1980-11-15 06:01:31.820 ,0,0,0.,1.2,0.,1.2,0.,1.2,,0.0,,0.0
1980-11-15 06:01:33.020 ,0,0,0.,1.2,0.,1.2,0.,1.2,,0.0,,0.0
1980-11-15 06:01:34.220 ,0,0,0.,1.2,0.,1.2,0.,1.2,,0.0,,0.0
1980-11-15 06:01:35.420 ,0,0,0.,1.2,0.,1.2,0.,1.2,,0.0,,0.0
1980-11-15 06:01:36.620 ,0,0,0.,1.2,0.,1.2,0.,1.2,,0.0,,0.0
1980-11-15 06:01:37.820 ,0,0,0.,1.2,0.,1.2,0.,1.2,,0.0,,0.0
1980-11-15 06:01:39.020 ,0,0,0.,1.2,0.,1.2,0.,1.2,,0.0,,0.0
1980-11-15 06:01:40.220 ,0,0,0.,1.2,0.,1.2,0.,1.2,,0.0,,0.0
1980-11-15 06:01:41.420 ,0,0,0.,1.2,0.,1.2,0.,1.2,,0.0,,0.0
1980-11-15 06:01:42.620 ,0,0,0.,1.2,0.,1.2,0.,1.2,,0.0,,0.0
1980-11-15 06:01:43.820 ,0,0,0.,1.2,0.,1.2,0.,1.2,,0.0,,0.0
1980-11-15 06:01:45.020 ,0,0,0.,1.2,0.,1.2,0.,1.2,,0.0,,0.0
1980-11-15 06:01:46.220 ,0,0,0.,1.2,0.,1.2,0.,1.2,,0.0,,0.0
1980-11-15 06:01:47.420 ,0,0,0.,1.2,0.,1.2,0.,1.2,,0.0,,0.0
1980-11-15 06:01:48.620 ,0,0,0.,1.2,0.,1.2,0.,1.2,,0.0,,0.0
1980-11-15 06:01:49.820 ,0,0,0.,1.2,0.,1.2,0.,1.2,,0.0,,0.0
1980-11-15 06:01:51.020 ,0,0,0.,1.2,0.,1.2,0.,1.2,,0.0,,0.0
1980-11-15 06:01:52.220 ,0,0,0.,1.2,0.,1.2,0.,1.2,,0.0,,0.0
1980-11-15 06:01:53.420 ,0,0,0.,1.2,0.,1.2,0.,1.2,,0.0,,0.0
1980-11-15 06:01:54.620 ,0,0,0.,1.2,0.,1.2,0.,1.2,,0.0,,0.0
1980-11-15 06:01:55.820 ,0,0,0.,1.2,0.,1.2,0.,1.2,,0.0,,0.0
1980-11-15 06:01:57.020 ,0,0,0.,1.2,0.,1.2,0.,1.2,,0.0,,0.0
1980-11-15 06:01:58.220 ,0,0,0.,1.2,0.,1.2,0.,1.2,,0.0,,0.0
1980-11-15 06:01:59.420 ,0,0,0.,1.2,0.,1.2,0.,1.2,,0.0,,0.0
1980-11-15 06:02:00.620 ,0,0,0.,1.2,0.,1.2,0.,1.2,,0.0,,0.0
1980-11-15 06:02:01.820 ,0,0,0.,1.2,0.,1.2,0.,1.2,,0.0,,0.0
1980-11-15 06:02:03.020 ,0,0,0.,1.2,0.,1.2,0.,1.2,,0.0,,0.0
1980-11-15 06:02:04.220 ,0,0,0.,1.2,0.,1.2,0.,1.2,,0.0,,0.0
1980-11-15 06:02:05.420 ,0,0,0.,1.2,0.,1.2,0.,1.2,,0.0,,0.0
1980-11-15 06:02:06.620 ,0,0,0.,1.2,0.,1.2,0.,1.2,,0.0,,0.0
1980-11-15 06:02:07.820 ,0,0,0.,1.2,0.,1.2,0.,1.2,,0.0,,0.0
1980-11-15 06:02:09.020 ,0,0,0.,1.2,0.,1.2,0.,1.2,,0.0,,0.0
1980-11-15 06:02:10.220 ,0,0,0.,1.2,0.,1.2,0.,1.2,,0.0,,0.0
1980-11-15 06:02:11.420 ,0,0,0.,1.2,0.,1.2,0.,1.2,,0.0,,0.0
1980-11-15 06:02:12.620 ,0,0,0.,1.2,0.,1.2,0.,1.2,,0.0,,0.0
1980-11-15 06:02:13.820 ,0,0,0.,1.2,0.,1.2,0.,1.2,,0.0,,0.0
1980-11-15 06:02:15.020 ,0,0,0.,1.2,0.,1.2,0.,1.2,,0.0,,0.0
1980-11-15 06:02:16.220 ,0,0,0.,1.2,0.,1.2,0.,1.2,,0.0,,0.0
1980-11-15 06:02:17.420 ,0,0,0.,1.2,0.,1.2,0.,1.2,,0.0,,0.0
1980-11-15 06:02:18.620 ,0,0,0.,1.2,0.,1.2,0.,1.2,,0.0,,0.0
1980-11-15 06:02:19.820 ,0,0,0.,1.2,0.,1.2,0.,1.2,,0.0,,0.0
1980-11-15 06:02:21.020 ,0,0,0.,1.2,0.,1.2,0.,1.2,,0.0,,0.0
1980-11-15 06:02:22.220 ,0,0,0.,1.2,0.,1.2,0.,1.2,,0.0,,0.0
1980-11-15 06:02:23.420 ,0,0,0.,1.2,0.,1.2,0.,1.2,,0.0,,0.0
1980-11-15 06:02:24.620 ,0,0,0.,1.2,0.,1.2,0.,1.2,,0.0,,0.0
1980-11-15 06:02:25.820 ,0,0,0.,1.2,0.,1.2,0.,1.2,,0.0,,0.0
1980-11-15 06:02:27.020 ,0,0,0.,1.2,0.,1.2,0.,1.2,,0.0,,0.0
1980-11-15 06:02:28.220 ,0,0,0.,1.2,0.,1.2,0.,1.2,,0.0,,0.0
1980-11-15 06:02:29.420 ,0,0,0.,1.2,0.,1.2,0.,1.2,,0.0,,0.0
1980-11-15 06:02:30.620 ,0,0,0.,1.2,0.,1.2,0.,1.2,,0.0,,0.0
1980-11-15 06:02:31.820 ,0,0,0.,1.2,0.,1.2,0.,1.2,,0.0,,0.0
1980-11-15 06:02:33.020 ,0,0,0.,1.2,0.,1.2,0.,1.2,,0.0,,0.0
1980-11-15 06:02:34.220 ,0,0,0.,1.2,0.,1.2,0.,1.2,,0.0,,0.0
1980-11-15 06:02:35.420 ,0,0,0.,1.2,0.,1.2,0.,1.2,,0.0,,0.0
1980-11-15 06:02:36.620 ,0,0,0.,1.2,0.,1.2,0.,1.2,,0.0,,0.0
1980-11-15 06:02:37.820 ,0,0,0.,1.2,0.,1.2,0.,1.2,,0.0,,0.0
1980-11-15 06:02:39.020 ,0,0,0.,1.2,0.,1.2,0.,1.2,,0.0,,0.0
1980-11-15 06:02:40.220 ,0,0,0.,1.2,0.,1.2,0.,1.2,,0.0,,0.0
1980-11-15 06:02:41.420 ,0,0,0.,1.2,0.,1.2,0.,1.2,,0.0,,0.0
1980-11-15 06:02:42.620 ,0,0,0.,1.2,0.,1.2,0.,1.2,,0.0,,0.0
1980-11-15 06:02:43.820 ,0,0,0.,1.2,0.,1.2,0.,1.2,,0.0,,0.0
1980-11-15 06:02:45.020 ,0,0,0.,1.2,0.,1.2,0.,1.2,,0.0,,0.0
1980-11-15 06:02:46.220 ,0,0,0.,1.2,0.,1.2,0.,1.2,,0.0,,0.0
1980-11-15 06:02:47.420 ,0,0,0.,1.2,0.,1.2,0.,1.2,,0.0,,0.0
1980-11-15 06:02:48.620 ,0,0,0.,1.2,0.,1.2,0.,1.2,,0.0,,0.0
1980-11-15 06:02:49.820 ,0,0,0.,1.2,0.,1.2,0.,1.2,,0.0,,0.0
1980-11-15 06:02:51.020 ,0,0,0.,1.2,0.,1.2,0.,1.2,,0.0,,0.0
1980-11-15 06:02:52.220 ,0,0,0.,1.2,0.,1.2,0.,1.2,,0.0,,0.0
1980-11-15 06:02:53.420 ,0,0,0.,1.2,0.,1.2,0.,1.2,,0.0,,0.0
1980-11-15 06:02:54.620 ,0,0,0.,1.2,0.,1.2,0.,1.2,,0.0,,0.0
1980-11-15 06:02:55.820 ,0,0,0.,1.2,0.,1.2,0.,1.2,,0.0,,0.0
1980-11-15 06:02:57.020 ,0,0,0.,1.2,0.,1.2,0.,1.2,,0.0,,0.0
1980-11-15 06:02:58.220 ,0,0,0.,1.2,0.,1.2,0.,1.2,,0.0,,0.0
1980-11-15 06:02:59.420 ,1,0,0.,1.2,0.,1.2,0.,1.2,,0.0,,0.0
1980-11-15 06:03:00.620 ,1,0,0.,1.2,0.,1.2,0.,1.2,,0.0,,0.0
1980-11-15 06:03:01.820 ,1,0,0.,1.2,0.,1.2,0.,1.2,,0.0,,0.0
1980-11-15 06:03:03.020 ,1,0,0.,1.2,0.,1.2,0.,1.2,,0.0,,0.0
1980-11-15 06:03:04.220 ,1,0,0.,1.2,0.,1.2,0.,1.2,,0.0,,0.0
1980-11-15 06:03:05.420 ,1,0,0.,1.2,0.,1.2,0.,1.2,,0.0,,0.0
1980-11-15 06:03:06.620 ,1,0,0.,1.2,0.,1.2,0.,1.2,,0.0,,0.0
1980-11-15 06:03:07.820 ,1,0,0.,1.2,0.,1.2,0.,1.2,,0.0,,0.0
1980-11-15 06:03:09.020 ,1,0,0.,1.2,0.,1.2,0.,1.2,,0.0,,0.0
1980-11-15 06:03:10.220 ,1,0,0.,1.2,0.,1.2,0.,1.2,,0.0,,0.0
1980-11-15 06:03:11.420 ,1,0,0.,1.2,0.,1.2,0.,1.2,,0.0,,0.0
1980-11-15 06:03:12.620 ,1,0,0.,1.2,0.,1.2,0.,1.2,,0.0,,0.0
1980-11-15 06:03:13.820 ,1,0,0.,1.2,0.,1.2,0.,1.2,,0.0,,0.0
1980-11-15 06:03:15.020 ,1,0,0.,1.2,0.,1.2,0.,1.2,,0.0,,0.0
1980-11-15 06:03:16.220 ,1,0,0.,1.2,0.,1.2,0.,1.2,,0.0,,0.0
1980-11-15 06:03:17.420 ,1,0,0.,1.2,0.,1.2,0.,1.2,,0.0,,0.0
1980-11-15 06:03:18.620 ,1,0,0.,1.2,0.,1.2,0.,1.2,,0.0,,0.0
1980-11-15 06:03:19.820 ,1,0,0.,1.2,0.,1.2,0.,1.2,,0.0,,0.0
1980-11-15 06:03:21.020 ,1,0,0.,1.2,0.,1.2,0.,1.2,,0.0,,0.0
1980-11-15 06:03:22.220 ,1,0,0.,1.2,0.,1.2,0.,1.2,,0.0,,0.0
1980-11-15 06:03:23.420 ,1,0,0.,1.2,0.,1.2,0.,1.2,,0.0,,0.0
1980-11-15 06:03:24.620 ,1,0,0.,1.2,0.,1.2,0.,1.2,,0.0,,0.0
1980-11-15 06:03:25.820 ,1,0,0.,1.2,0.,1.2,0.,1.2,,0.0,,0.0
1980-11-15 06:03:27.020 ,1,0,0.,1.2,0.,1.2,0.,1.2,,0.0,,0.0
1980-11-15 06:03:28.220 ,1,0,0.,1.2,0.,1.2,0.,1.2,,0.0,,0.0
1980-11-15 06:03:29.420 ,1,0,0.,1.2,0.,1.2,0.,1.2,,0.0,,0.0
1980-11-15 06:03:30.620 ,1,0,0.,1.2,0.,1.2,0.,1.2,,0.0,,0.0
1980-11-15 06:03:31.820 ,1,0,0.,1.2,0.,1.2,0.,1.2,,0.0,,0.0
1980-11-15 06:03:33.020 ,1,0,0.,1.2,0.,1.2,0.,1.2,,0.0,,0.0
1980-11-15 06:03:34.220 ,1,0,0.,1.2,0.,1.2,0.,1.2,,0.0,,0.0
1980-11-15 06:03:35.420 ,1,0,0.,1.2,0.,1.2,0.,1.2,,0.0,,0.0
1980-11-15 06:03:36.620 ,1,0,0.,1.2,0.,1.2,0.,1.2,,0.0,,0.0
1980-11-15 06:03:37.820 ,1,0,0.,1.2,0.,1.2,0.,1.2,,0.0,,0.0
1980-11-15 06:03:39.020 ,1,0,0.,1.2,0.,1.2,0.,1.2,,0.0,,0.0
1980-11-15 06:03:40.220 ,1,0,0.,1.2,0.,1.2,0.,1.2,,0.0,,0.0
1980-11-15 06:03:41.420 ,1,0,0.,1.2,0.,1.2,0.,1.2,,0.0,,0.0
1980-11-15 06:03:42.620 ,1,0,0.,1.2,0.,1.2,0.,1.2,,0.0,,0.0
1980-11-15 06:03:43.820 ,1,0,0.,1.2,0.,1.2,0.,1.2,,0.0,,0.0
1980-11-15 06:03:45.020 ,1,0,0.,1.2,0.,1.2,0.,1.2,,0.0,,0.0
1980-11-15 06:03:46.220 ,1,0,0.,1.2,0.,1.2,0.,1.2,,0.0,,0.0
1980-11-15 06:03:47.420 ,2,0,0.,1.2,0.,1.2,0.,1.2,,0.0,,0.0
1980-11-15 06:03:48.620 ,2,0,0.,1.2,0.,1.2,0.,1.2,,0.0,,0.0
1980-11-15 06:03:49.820 ,2,0,0.,1.2,0.,1.2,0.,1.2,,0.0,,0.0
1980-11-15 06:03:51.020 ,2,0,0.,1.2,0.,1.2,0.,1.2,,0.0,,0.0
1980-11-15 06:03:52.220 ,2,0,0.,1.2,0.,1.2,0.,1.2,,0.0,,0.0
1980-11-15 06:03:53.420 ,2,0,0.,1.2,0.,1.2,0.,1.2,,0.0,,0.0
1980-11-15 06:03:54.620 ,2,0,0.,1.2,0.,1.2,0.,1.2,,0.0,,0.0
1980-11-15 06:03:55.820 ,2,0,0.,1.2,0.,1.2,0.,1.2,,0.0,,0.0
1980-11-15 06:03:57.020 ,2,0,0.,1.2,0.,1.2,0.,1.2,,0.0,,0.0
1980-11-15 06:03:58.220 ,2,0,0.,1.2,0.,1.2,0.,1.2,,0.0,,0.0
1980-11-15 06:03:59.420 ,2,0,0.,1.2,0.,1.2,0.,1.2,,0.0,,0.0
1980-11-15 06:04:00.620 ,2,0,0.,1.2,0.,1.2,0.,1.2,,0.0,,0.0
1980-11-15 06:04:01.820 ,2,0,0.,1.2,0.,1.2,0.,1.2,,0.0,,0.0
1980-11-15 06:04:03.020 ,2,0,0.,1.2,0.,1.2,0.,1.2,,0.0,,0.0
1980-11-15 06:04:04.220 ,2,0,0.,1.2,0.,1.2,0.,1.2,,0.0,,0.0
1980-11-15 06:04:05.420 ,2,0,0.,1.2,0.,1.2,0.,1.2,,0.0,,0.0
1980-11-15 06:04:06.620 ,2,0,0.,1.2,0.,1.2,0.,1.2,,0.0,,0.0
1980-11-15 06:04:07.820 ,2,0,0.,1.2,0.,1.2,0.,1.2,,0.0,,0.0
1980-11-15 06:04:09.020 ,2,0,0.,1.2,0.,1.2,0.,1.2,,0.0,,0.0
1980-11-15 06:04:10.220 ,2,0,0.,1.2,0.,1.2,0.,1.2,,0.0,,0.0
1980-11-15 06:04:11.420 ,2,0,0.,1.2,0.,1.2,0.,1.2,,0.0,,0.0
1980-11-15 06:04:12.620 ,2,0,0.,1.2,0.,1.2,0.,1.2,,0.0,,0.0
1980-11-15 06:04:13.820 ,2,0,0.,1.2,0.,1.2,0.,1.2,,0.0,,0.0
1980-11-15 06:04:15.020 ,2,0,0.,1.2,0.,1.2,0.,1.2,,0.0,,0.0
1980-11-15 06:04:16.220 ,2,0,0.,1.2,0.,1.2,0.,1.2,,0.0,,0.0
1980-11-15 06:04:17.420 ,2,0,0.,1.2,0.,1.2,0.,1.2,,0.0,,0.0
1980-11-15 06:04:18.620 ,2,0,0.,1.2,0.,1.2,0.,1.2,,0.0,,0.0
1980-11-15 06:04:19.820 ,2,0,0.,1.2,0.,1.2,0.,1.2,,0.0,,0.0
1980-11-15 06:04:21.020 ,2,0,0.,1.2,0.,1.2,0.,1.2,,0.0,,0.0
1980-11-15 06:04:22.220 ,2,0,0.,1.2,0.,1.2,0.,1.2,,0.0,,0.0
1980-11-15 06:04:23.420 ,2,0,0.,1.2,0.,1.2,0.,1.2,,0.0,,0.0
1980-11-15 06:04:24.620 ,2,0,0.,1.2,0.,1.2,0.,1.2,,0.0,,0.0
1980-11-15 06:04:25.820 ,2,0,0.,1.2,0.,1.2,0.,1.2,,0.0,,0.0
1980-11-15 06:04:27.020 ,2,0,0.,1.2,0.,1.2,0.,1.2,,0.0,,0.0
1980-11-15 06:04:28.220 ,2,0,0.,1.2,0.,1.2,0.,1.2,,0.0,,0.0
1980-11-15 06:04:29.420 ,2,0,0.,1.2,0.,1.2,0.,1.2,,0.0,,0.0
1980-11-15 06:04:30.620 ,2,0,0.,1.2,0.,1.2,0.,1.2,,0.0,,0.0
1980-11-15 06:04:31.820 ,2,0,0.,1.2,0.,1.2,0.,1.2,,0.0,,0.0
1980-11-15 06:04:33.020 ,2,0,0.,1.2,0.,1.2,0.,1.2,,0.0,,0.0
1980-11-15 06:04:34.220 ,2,0,0.,1.2,0.,1.2,0.,1.2,,0.0,,0.0
1980-11-15 06:04:35.420 ,3,0,0.,1.2,0.,1.2,0.,1.2,,0.0,,0.0
1980-11-15 06:04:36.620 ,3,0,0.,1.2,0.,1.2,0.,1.2,,0.0,,0.0
1980-11-15 06:04:37.820 ,3,0,0.,1.2,0.,1.2,0.,1.2,,0.0,,0.0
1980-11-15 06:04:39.020 ,3,0,0.,1.2,0.,1.2,0.,1.2,,0.0,,0.0
1980-11-15 06:04:40.220 ,3,0,0.,1.2,0.,1.2,0.,1.2,,0.0,,0.0
1980-11-15 06:04:41.420 ,3,0,0.,1.2,0.,1.2,0.,1.2,,0.0,,0.0
1980-11-15 06:04:42.620 ,3,0,0.,1.2,0.,1.2,0.,1.2,,0.0,,0.0
1980-11-15 06:04:43.820 ,3,0,0.,1.2,0.,1.2,0.,1.2,,0.0,,0.0
1980-11-15 06:04:45.020 ,3,0,0.,1.2,0.,1.2,0.,1.2,,0.0,,0.0
1980-11-15 06:04:46.220 ,3,0,0.,1.2,0.,1.2,0.,1.2,,0.0,,0.0
1980-11-15 06:04:47.420 ,3,0,0.,1.2,0.,1.2,0.,1.2,,0.0,,0.0
1980-11-15 06:04:48.620 ,3,0,0.,1.2,0.,1.2,0.,1.2,,0.0,,0.0
1980-11-15 06:04:49.820 ,3,0,0.,1.2,0.,1.2,0.,1.2,,0.0,,0.0
1980-11-15 06:04:51.020 ,3,0,0.,1.2,0.,1.2,0.,1.2,,0.0,,0.0
1980-11-15 06:04:52.220 ,3,0,0.,1.2,0.,1.2,0.,1.2,,0.0,,0.0
1980-11-15 06:04:53.420 ,3,0,0.,1.2,0.,1.2,0.,1.2,,0.0,,0.0
1980-11-15 06:04:54.620 ,3,0,0.,1.2,0.,1.2,0.,1.2,,0.0,,0.0
1980-11-15 06:04:55.820 ,3,0,0.,1.2,0.,1.2,0.,1.2,,0.0,,0.0
1980-11-15 06:04:57.020 ,3,0,0.,1.2,0.,1.2,0.,1.2,,0.0,,0.0
1980-11-15 06:04:58.220 ,3,0,0.,1.2,0.,1.2,0.,1.2,,0.0,,0.0
1980-11-15 06:04:59.420 ,3,0,0.,1.2,0.,1.2,0.,1.2,,0.0,,0.0
1980-11-15 06:05:00.620 ,3,0,0.,1.2,0.,1.2,0.,1.2,,0.0,,0.0
1980-11-15 06:05:01.820 ,3,0,0.,1.2,0.,1.2,0.,1.2,,0.0,,0.0
1980-11-15 06:05:03.020 ,3,0,0.,1.2,0.,1.2,0.,1.2,,0.0,,0.0
1980-11-15 06:05:04.220 ,3,0,0.,1.2,0.,1.2,0.,1.2,,0.0,,0.0
1980-11-15 06:05:05.420 ,3,0,0.,1.2,0.,1.2,0.,1.2,,0.0,,0.0
1980-11-15 06:05:06.620 ,3,0,0.,1.2,0.,1.2,0.,1.2,,0.0,,0.0
1980-11-15 06:05:07.820 ,3,0,0.,1.2,0.,1.2,0.,1.2,,0.0,,0.0
1980-11-15 06:05:09.020 ,3,0,0.,1.2,0.,1.2,0.,1.2,,0.0,,0.0
1980-11-15 06:05:10.220 ,3,0,0.,1.2,0.,1.2,0.,1.2,,0.0,,0.0
1980-11-15 06:05:11.420 ,3,0,0.,1.2,0.,1.2,0.,1.2,,0.0,,0.0
1980-11-15 06:05:12.620 ,3,0,0.,1.2,0.,1.2,0.,1.2,,0.0,,0.0
1980-11-15 06:05:13.820 ,3,0,0.,1.2,0.,1.2,0.,1.2,,0.0,,0.0
1980-11-15 06:05:15.020 ,3,0,0.,1.2,0.,1.2,0.,1.2,,0.0,,0.0
1980-11-15 06:05:16.220 ,3,0,0.,1.2,0.,1.2,0.,1.2,,0.0,,0.0
1980-11-15 06:05:17.420 ,3,0,0.,1.2,0.,1.2,0.,1.2,,0.0,,0.0
1980-11-15 06:05:18.620 ,3,0,0.,1.2,0.,1.2,0.,1.2,,0.0,,0.0
1980-11-15 06:05:19.820 ,3,0,0.,1.2,0.,1.2,0.,1.2,,0.0,,0.0
1980-11-15 06:05:21.020 ,3,0,0.,1.2,0.,1.2,0.,1.2,,0.0,,0.0
1980-11-15 06:05:22.220 ,3,0,0.,1.2,0.,1.2,0.,1.2,,0.0,,0.0
1980-11-15 06:05:23.420 ,4,0,0.,1.2,0.,1.2,0.,1.2,,0.0,,0.0
1980-11-15 06:05:24.620 ,4,0,0.,1.2,0.,1.2,0.,1.2,,0.0,,0.0
1980-11-15 06:05:25.820 ,4,0,0.,1.2,0.,1.2,0.,1.2,,0.0,,0.0
1980-11-15 06:05:27.020 ,4,0,0.,1.2,0.,1.2,0.,1.2,,0.0,,0.0
1980-11-15 06:05:28.220 ,4,0,0.,1.2,0.,1.2,0.,1.2,,0.0,,0.0
1980-11-15 06:05:29.420 ,4,0,0.,1.2,0.,1.2,0.,1.2,,0.0,,0.0
1980-11-15 06:05:30.620 ,4,0,0.,1.2,0.,1.2,0.,1.2,,0.0,,0.0
1980-11-15 06:05:31.820 ,4,0,0.,1.2,0.,1.2,0.,1.2,,0.0,,0.0
1980-11-15 06:05:33.020 ,4,0,0.,1.2,0.,1.2,0.,1.2,,0.0,,0.0
1980-11-15 06:05:34.220 ,4,0,0.,1.2,0.,1.2,0.,1.2,,0.0,,0.0
1980-11-15 06:05:35.420 ,4,0,0.,1.2,0.,1.2,0.,1.2,,0.0,,0.0
1980-11-15 06:05:36.620 ,4,0,0.,1.2,0.,1.2,0.,1.2,,0.0,,0.0
1980-11-15 06:05:37.820 ,4,0,0.,1.2,0.,1.2,0.,1.2,,0.0,,0.0
1980-11-15 06:05:39.020 ,4,0,0.,1.2,0.,1.2,0.,1.2,,0.0,,0.0
1980-11-15 06:05:40.220 ,4,0,0.,1.2,0.,1.2,0.,1.2,,0.0,,0.0
1980-11-15 06:05:41.420 ,4,0,0.,1.2,0.,1.2,0.,1.2,,0.0,,0.0
1980-11-15 06:05:42.620 ,4,0,0.,1.2,0.,1.2,0.,1.2,,0.0,,0.0
1980-11-15 06:05:43.820 ,4,0,0.,1.2,0.,1.2,0.,1.2,,0.0,,0.0
1980-11-15 06:05:45.020 ,4,0,0.,1.2,0.,1.2,0.,1.2,,0.0,,0.0
1980-11-15 06:05:46.220 ,4,0,0.,1.2,0.,1.2,0.,1.2,,0.0,,0.0
1980-11-15 06:05:47.420 ,4,0,0.,1.2,0.,1.2,0.,1.2,,0.0,,0.0
1980-11-15 06:05:48.620 ,4,0,0.,1.2,0.,1.2,0.,1.2,,0.0,,0.0
1980-11-15 06:05:49.820 ,4,0,0.,1.2,0.,1.2,0.,1.2,,0.0,,0.0
1980-11-15 06:05:51.020 ,4,0,0.,1.2,0.,1.2,0.,1.2,,0.0,,0.0
1980-11-15 06:05:52.220 ,4,0,0.,1.2,0.,1.2,0.,1.2,,0.0,,0.0
1980-11-15 06:05:53.420 ,4,0,0.,1.2,0.,1.2,0.,1.2,,0.0,,0.0
1980-11-15 06:05:54.620 ,4,0,0.,1.2,0.,1.2,0.,1.2,,0.0,,0.0
1980-11-15 06:05:55.820 ,4,0,0.,1.2,0.,1.2,0.,1.2,,0.0,,0.0
1980-11-15 06:05:57.020 ,4,0,0.,1.2,0.,1.2,0.,1.2,,0.0,,0.0
1980-11-15 06:05:58.220 ,4,0,0.,1.2,0.,1.2,0.,1.2,,0.0,,0.0
1980-11-15 06:05:59.420 ,4,0,0.,1.2,0.,1.2,0.,1.2,,0.0,,0.0
1980-11-15 06:06:00.620 ,4,0,0.,1.2,0.,1.2,0.,1.2,,0.0,,0.0
1980-11-15 06:06:01.820 ,4,0,0.,1.2,0.,1.2,0.,1.2,,0.0,,0.0
1980-11-15 06:06:03.020 ,4,0,0.,1.2,0.,1.2,0.,1.2,,0.0,,0.0
1980-11-15 06:06:04.220 ,4,0,0.,1.2,0.,1.2,0.,1.2,,0.0,,0.0
1980-11-15 06:06:05.420 ,4,0,0.,1.2,0.,1.2,0.,1.2,,0.0,,0.0
1980-11-15 06:06:06.620 ,4,0,0.,1.2,0.,1.2,0.,1.2,,0.0,,0.0
1980-11-15 06:06:07.820 ,4,0,0.,1.2,0.,1.2,0.,1.2,,0.0,,0.0
1980-11-15 06:06:09.020 ,4,0,0.,1.2,0.,1.2,0.,1.2,,0.0,,0.0
1980-11-15 06:06:10.220 ,4,0,0.,1.2,0.,1.2,0.,1.2,,0.0,,0.0
1980-11-15 06:06:11.420 ,5,0,0.,1.2,0.,1.2,0.,1.2,,0.0,,0.0
1980-11-15 06:06:12.620 ,5,0,0.,1.2,0.,1.2,0.,1.2,,0.0,,0.0
1980-11-15 06:06:13.820 ,5,0,0.,1.2,0.,1.2,0.,1.2,,0.0,,0.0
1980-11-15 06:06:15.020 ,5,0,0.,1.2,0.,1.2,0.,1.2,,0.0,,0.0
1980-11-15 06:06:16.220 ,5,0,0.,1.2,0.,1.2,0.,1.2,,0.0,,0.0
1980-11-15 06:06:17.420 ,5,0,0.,1.2,0.,1.2,0.,1.2,,0.0,,0.0
1980-11-15 06:06:18.620 ,5,0,0.,1.2,0.,1.2,0.,1.2,,0.0,,0.0
1980-11-15 06:06:19.820 ,5,0,0.,1.2,0.,1.2,0.,1.2,,0.0,,0.0
1980-11-15 06:06:21.020 ,5,0,0.,1.2,0.,1.2,0.,1.2,,0.0,,0.0
1980-11-15 06:06:22.220 ,5,0,0.,1.2,0.,1.2,0.,1.2,,0.0,,0.0
1980-11-15 06:06:23.420 ,5,0,0.,1.2,0.,1.2,0.,1.2,,0.0,,0.0
1980-11-15 06:06:24.620 ,5,0,0.,1.2,0.,1.2,0.,1.2,,0.0,,0.0
1980-11-15 06:06:25.820 ,5,0,0.,1.2,0.,1.2,0.,1.2,,0.0,,0.0
1980-11-15 06:06:27.020 ,5,0,0.,1.2,0.,1.2,0.,1.2,,0.0,,0.0
1980-11-15 06:06:28.220 ,5,0,0.,1.2,0.,1.2,0.,1.2,,0.0,,0.0
1980-11-15 06:06:29.420 ,5,0,0.,1.2,0.,1.2,0.,1.2,,0.0,,0.0
1980-11-15 06:06:30.620 ,5,0,0.,1.2,0.,1.2,0.,1.2,,0.0,,0.0
1980-11-15 06:06:31.820 ,5,0,0.,1.2,0.,1.2,0.,1.2,,0.0,,0.0
1980-11-15 06:06:33.020 ,5,0,0.,1.2,0.,1.2,0.,1.2,,0.0,,0.0
1980-11-15 06:06:34.220 ,5,0,0.,1.2,0.,1.2,0.,1.2,,0.0,,0.0
1980-11-15 06:06:35.420 ,5,0,0.,1.2,0.,1.2,0.,1.2,,0.0,,0.0
1980-11-15 06:06:36.620 ,5,0,0.,1.2,0.,1.2,0.,1.2,,0.0,,0.0
1980-11-15 06:06:37.820 ,5,0,0.,1.2,0.,1.2,0.,1.2,,0.0,,0.0
1980-11-15 06:06:39.020 ,5,0,0.,1.2,0.,1.2,0.,1.2,,0.0,,0.0
1980-11-15 06:06:40.220 ,5,0,0.,1.2,0.,1.2,0.,1.2,,0.0,,0.0
1980-11-15 06:06:41.420 ,5,0,0.,1.2,0.,1.2,0.,1.2,,0.0,,0.0
1980-11-15 06:06:42.620 ,5,0,0.,1.2,0.,1.2,0.,1.2,,0.0,,0.0
1980-11-15 06:06:43.820 ,5,0,0.,1.2,0.,1.2,0.,1.2,,0.0,,0.0
1980-11-15 06:06:45.020 ,5,0,0.,1.2,0.,1.2,0.,1.2,,0.0,,0.0
1980-11-15 06:06:46.220 ,5,0,0.,1.2,0.,1.2,0.,1.2,,0.0,,0.0
1980-11-15 06:06:47.420 ,5,0,0.,1.2,0.,1.2,0.,1.2,,0.0,,0.0
1980-11-15 06:06:48.620 ,5,0,0.,1.2,0.,1.2,0.,1.2,,0.0,,0.0
1980-11-15 06:06:49.820 ,5,0,0.,1.2,0.,1.2,0.,1.2,,0.0,,0.0
1980-11-15 06:06:51.020 ,5,0,0.,1.2,0.,1.2,0.,1.2,,0.0,,0.0
1980-11-15 06:06:52.220 ,5,0,0.,1.2,0.,1.2,0.,1.2,,0.0,,0.0
1980-11-15 06:06:53.420 ,5,0,0.,1.2,0.,1.2,0.,1.2,,0.0,,0.0
1980-11-15 06:06:54.620 ,5,0,0.,1.2,0.,1.2,0.,1.2,,0.0,,0.0
1980-11-15 06:06:55.820 ,5,0,0.,1.2,0.,1.2,0.,1.2,,0.0,,0.0
1980-11-15 06:06:57.020 ,5,0,0.,1.2,0.,1.2,0.,1.2,,0.0,,0.0
1980-11-15 06:06:58.220 ,5,0,0.,1.2,0.,1.2,0.,1.2,,0.0,,0.0
1980-11-15 06:06:59.420 ,6,0,0.,1.2,0.,1.2,0.,1.2,,0.0,,0.0
1980-11-15 06:07:00.620 ,6,0,0.,1.2,0.,1.2,0.,1.2,,0.0,,0.0
1980-11-15 06:07:01.820 ,6,0,0.,1.2,0.,1.2,0.,1.2,,0.0,,0.0
1980-11-15 06:07:03.020 ,6,0,0.,1.2,0.,1.2,0.,1.2,,0.0,,0.0
1980-11-15 06:07:04.220 ,6,0,0.,1.2,0.,1.2,0.,1.2,,0.0,,0.0
1980-11-15 06:07:05.420 ,6,0,0.,1.2,0.,1.2,0.,1.2,,0.0,,0.0
1980-11-15 06:07:06.620 ,6,0,0.,1.2,0.,1.2,0.,1.2,,0.0,,0.0
1980-11-15 06:07:07.820 ,6,0,0.,1.2,0.,1.2,0.,1.2,,0.0,,0.0
1980-11-15 06:07:09.020 ,6,0,0.,1.2,0.,1.2,0.,1.2,,0.0,,0.0
1980-11-15 06:07:10.220 ,6,0,0.,1.2,0.,1.2,0.,1.2,,0.0,,0.0
1980-11-15 06:07:11.420 ,6,0,0.,1.2,0.,1.2,0.,1.2,,0.0,,0.0
1980-11-15 06:07:12.620 ,6,0,0.,1.2,0.,1.2,0.,1.2,,0.0,,0.0
1980-11-15 06:07:13.820 ,6,0,0.,1.2,0.,1.2,0.,1.2,,0.0,,0.0
1980-11-15 06:07:15.020 ,6,0,0.,1.2,0.,1.2,0.,1.2,,0.0,,0.0
1980-11-15 06:07:16.220 ,6,0,0.,1.2,0.,1.2,0.,1.2,,0.0,,0.0
1980-11-15 06:07:17.420 ,6,0,0.,1.2,0.,1.2,0.,1.2,,0.0,,0.0
1980-11-15 06:07:18.620 ,6,0,0.,1.2,0.,1.2,0.,1.2,,0.0,,0.0
1980-11-15 06:07:19.820 ,6,0,0.,1.2,0.,1.2,0.,1.2,,0.0,,0.0
1980-11-15 06:07:21.020 ,6,0,0.,1.2,0.,1.2,0.,1.2,,0.0,,0.0
1980-11-15 06:07:22.220 ,6,0,0.,1.2,0.,1.2,0.,1.2,,0.0,,0.0
1980-11-15 06:07:23.420 ,6,0,0.,1.2,0.,1.2,0.,1.2,,0.0,,0.0
1980-11-15 06:07:24.620 ,6,0,0.,1.2,0.,1.2,0.,1.2,,0.0,,0.0
1980-11-15 06:07:25.820 ,6,0,0.,1.2,0.,1.2,0.,1.2,,0.0,,0.0
1980-11-15 06:07:27.020 ,6,0,0.,1.2,0.,1.2,0.,1.2,,0.0,,0.0
1980-11-15 06:07:28.220 ,6,0,0.,1.2,0.,1.2,0.,1.2,,0.0,,0.0
1980-11-15 06:07:29.420 ,6,0,0.,1.2,0.,1.2,0.,1.2,,0.0,,0.0
1980-11-15 06:07:30.620 ,6,0,0.,1.2,0.,1.2,0.,1.2,,0.0,,0.0
1980-11-15 06:07:31.820 ,6,0,0.,1.2,0.,1.2,0.,1.2,,0.0,,0.0
1980-11-15 06:07:33.020 ,6,0,0.,1.2,0.,1.2,0.,1.2,,0.0,,0.0
1980-11-15 06:07:34.220 ,6,0,0.,1.2,0.,1.2,0.,1.2,,0.0,,0.0
1980-11-15 06:07:35.420 ,6,0,0.,1.2,0.,1.2,0.,1.2,,0.0,,0.0
1980-11-15 06:07:36.620 ,6,0,0.,1.2,0.,1.2,0.,1.2,,0.0,,0.0
1980-11-15 06:07:37.820 ,6,0,0.,1.2,0.,1.2,0.,1.2,,0.0,,0.0
1980-11-15 06:07:39.020 ,6,0,0.,1.2,0.,1.2,0.,1.2,,0.0,,0.0
1980-11-15 06:07:40.220 ,6,0,0.,1.2,0.,1.2,0.,1.2,,0.0,,0.0
1980-11-15 06:07:41.420 ,6,0,0.,1.2,0.,1.2,0.,1.2,,0.0,,0.0
1980-11-15 06:07:42.620 ,6,0,0.,1.2,0.,1.2,0.,1.2,,0.0,,0.0
1980-11-15 06:07:43.820 ,6,0,0.,1.2,0.,1.2,0.,1.2,,0.0,,0.0
1980-11-15 06:07:45.020 ,6,0,0.,1.2,0.,1.2,0.,1.2,,0.0,,0.0
1980-11-15 06:07:46.220 ,6,0,0.,1.2,0.,1.2,0.,1.2,,0.0,,0.0
1980-11-15 06:07:47.420 ,7,0,0.,1.2,0.,1.2,0.,1.2,,0.0,,0.0
1980-11-15 06:07:48.620 ,7,0,0.,1.2,0.,1.2,0.,1.2,,0.0,,0.0
1980-11-15 06:07:49.820 ,7,0,0.,1.2,0.,1.2,0.,1.2,,0.0,,0.0
1980-11-15 06:07:51.020 ,7,0,0.,1.2,0.,1.2,0.,1.2,,0.0,,0.0
1980-11-15 06:07:52.220 ,7,0,0.,1.2,0.,1.2,0.,1.2,,0.0,,0.0
1980-11-15 06:07:53.420 ,7,0,0.,1.2,0.,1.2,0.,1.2,,0.0,,0.0
1980-11-15 06:07:54.620 ,7,0,0.,1.2,0.,1.2,0.,1.2,,0.0,,0.0
1980-11-15 06:07:55.820 ,7,0,0.,1.2,0.,1.2,0.,1.2,,0.0,,0.0
1980-11-15 06:07:57.020 ,7,0,0.,1.2,0.,1.2,0.,1.2,,0.0,,0.0
1980-11-15 06:07:58.220 ,7,0,0.,1.2,0.,1.2,0.,1.2,,0.0,,0.0
1980-11-15 06:07:59.420 ,7,0,0.,1.2,0.,1.2,0.,1.2,,0.0,,0.0
1980-11-15 06:08:00.620 ,7,0,0.,1.2,0.,1.2,0.,1.2,,0.0,,0.0